sat.trackr.live / text

‹ back to catalog

STARLINK-36408

NORAD 67473 · 2026-008AE

PAYLOAD ACTIVE UNKNOWN

§ Identity

Operator
Country
US
Launch date
2026-01-14
Launch site
AFETR
Launch vehicle
Mass (kg)
RCS (m²)

Purposes: comms

External: N2YO · Heavens-Above · Gunter

§ Orbital elements

Epoch: 2026-09-19T12:18:00.696384Z

Period
94.27 min
Inclination
43.0019°
Eccentricity
0.0001518
Mean motion
15.27591782 rev/d
Perigee alt
482.0 km
Apogee alt
484.1 km
Semi-major
6,861.2 km
B*
3.4451e-4
RAAN
190.7116°
Arg perigee
273.9024°
Mean anomaly
86.1654°
Rev number
3,921

§ Raw data

STARLINK-364081 67473U 26008AE  26262.51250806  .00009233  00000+0  34451-3 0  99942 67473  43.0019 190.7116 0001518 273.9024  86.1654 15.27591782 39215

JSON: /api/v1/satellites/67473 · /tle

For live sub-satellite position, see the globe view (requires WebGL).

§ Visibility from observer

Set your observer location to see the next 7 days of passes ≥ 10°. The values pass through the URL so the page stays shareable.

No JS? Fill the form by hand. The geolocation button needs JavaScript.